Theta_e
340 338 340 342 344 344 346 346 346 347 349 348 349 347 350 352 348 341 345 351 338 330 325 326 322 325 336 337 337 337 336 335 334 333 335 335 331 330 334 332 333 333 334
344 340 337 338 340 341 342 344 345 346 346 347 348 348 347 348 352 342 339 349 343 337 328 326 323 325 321 328 338 336 336 336 335 336 336 336 335 335 336 332 334 333 333
353 347 343 338 339 341 340 340 342 344 346 346 346 348 347 346 346 346 338 340 344 342 335 328 325 323 322 331 330 336 338 337 336 335 335 337 335 336 336 334 336 334 333
353 354 351 343 340 339 339 339 341 343 345 345 346 346 348 344 340 340 339 338 342 344 338 332 327 326 322 322 323 323 336 336 338 337 336 335 336 336 336 334 334 334 333
352 354 353 343 343 342 341 341 342 343 343 345 345 346 346 348 344 337 335 335 339 343 340 332 329 335 338 337 329 328 334 335 336 337 337 336 336 335 335 335 334 333 333
350 350 352 350 345 343 344 344 343 343 343 344 345 345 346 347 349 338 332 333 334 340 342 337 338 340 341 342 341 334 331 328 329 336 337 336 336 336 335 334 333 334 332
345 347 348 349 346 344 347 347 344 343 344 344 344 345 345 345 346 342 332 331 337 339 340 342 345 347 342 343 344 342 336 333 330 338 338 337 337 338 336 336 335 333 332
342 345 342 345 345 348 348 344 344 345 345 344 344 344 345 345 345 345 345 337 338 344 345 343 345 346 345 343 344 345 343 340 339 333 338 339 338 338 337 335 334 331 331
340 340 342 343 352 356 350 348 353 356 355 354 355 349 344 345 344 344 345 347 341 339 342 343 344 344 346 347 347 346 345 343 341 338 332 336 332 336 334 334 333 333 331
334 342 345 344 346 346 346 351 352 357 357 357 357 352 347 345 345 343 343 346 348 346 344 345 343 343 344 347 348 348 346 346 343 341 335 334 332 334 332 328 332 331 331
352 353 352 343 343 344 345 346 347 346 354 355 356 356 352 345 347 345 344 344 346 348 348 347 347 342 342 344 347 349 349 346 344 342 340 334 332 334 331 326 328 331 328
352 354 353 347 352 356 350 349 350 355 354 353 347 346 345 343 345 347 344 345 341 345 348 346 348 348 344 342 346 349 348 345 344 343 338 335 335 335 334 333 329 327 325
348 345 352 356 355 354 355 356 358 357 356 357 358 354 355 358 353 349 346 345 345 346 349 352 352 351 348 346 348 348 347 342 342 340 335 336 334 334 332 331 328 321 319
341 345 352 356 356 356 358 359 359 359 358 357 357 354 352 351 357 358 354 350 351 351 350 353 352 351 349 347 347 346 343 336 339 337 336 335 334 333 332 329 326 323 322
349 355 357 356 353 357 354 359 359 358 358 358 356 354 354 354 359 359 356 355 353 353 351 351 351 350 347 346 341 342 335 334 337 337 335 335 334 331 329 327 325 324 323
353 353 353 353 356 357 358 359 357 357 356 353 349 348 356 358 359 359 357 357 353 352 351 347 346 344 343 341 339 337 335 337 336 335 335 334 333 330 328 326 325 324 323
347 345 351 348 349 350 354 355 357 357 354 354 357 357 355 355 357 358 356 355 353 352 351 345 337 332 335 332 333 332 333 334 335 335 334 333 331 329 327 326 325 324 321
335 334 339 335 338 345 347 348 354 353 352 351 350 354 354 352 355 352 355 355 352 348 345 341 337 337 335 334 333 334 336 333 335 334 332 331 329 327 326 325 324 321 319
343 340 335 336 335 337 339 342 344 347 346 346 346 347 350 351 348 351 349 345 342 338 336 337 337 335 333 331 334 335 333 334 334 332 330 328 327 326 325 322 321 319 316
332 331 337 339 340 340 340 338 338 339 338 336 336 337 337 335 334 332 333 331 329 336 336 337 336 334 333 334 334 334 333 331 330 329 328 327 325 324 322 321 318 315 311
339 337 339 341 340 336 337 338 337 336 335 333 330 329 329 329 329 327 326 329 332 332 334 334 336 337 335 334 333 332 331 329 329 328 326 325 324 322 320 317 314 311 310
337 340 338 338 338 337 336 336 335 336 335 334 332 331 331 331 331 332 332 332 332 332 334 334 336 336 335 334 332 331 329 328 327 325 324 322 320 319 316 313 311 310 309
338 337 339 340 338 336 337 337 336 334 333 333 333 331 332 331 332 333 333 332 332 333 336 336 336 335 334 332 330 328 326 325 323 321 320 319 318 316 313 311 310 309 309
338 337 336 334 336 336 335 333 334 335 336 336 331 332 332 332 332 332 332 333 332 332 332 332 330 329 328 327 326 324 322 321 320 320 319 318 316 313 311 310 310 309 308
333 334 333 334 335 334 334 332 332 334 334 333 334 334 332 330 332 332 330 328 327 327 326 326 326 325 324 323 322 321 319 318 317 316 315 314 312 311 310 310 309 308 307
328 329 327 327 328 329 329 330 330 330 331 331 330 330 330 329 330 330 329 328 326 326 325 325 324 324 322 321 320 318 317 314 312 309 311 311 311 310 309 309 308 306 306
Wind_Speed
47 48 48 46 45 44 45 44 42 37 35 31 30 25 25 25 26 27 24 21 23 23 23 23 23 21 16 14 14 12 12 12 12 9 9 11 11 10 9 9 10 11 11
47 45 46 47 46 44 45 43 42 40 38 35 33 31 30 28 27 30 29 25 28 27 27 27 25 22 24 22 16 17 14 14 13 12 11 10 10 12 12 15 10 10 12
43 46 46 46 47 49 47 46 44 41 40 38 36 36 34 33 33 33 33 32 31 30 29 29 27 26 25 21 22 18 15 15 14 13 11 10 11 11 11 11 12 11 13
38 40 47 52 51 48 47 47 46 45 43 41 41 39 37 35 36 37 37 36 35 34 33 32 30 29 27 25 25 24 19 16 14 14 14 15 13 12 12 13 15 14 15
41 39 45 48 52 53 53 52 49 47 45 44 43 42 40 38 37 42 43 41 40 38 36 36 34 32 29 27 26 25 22 20 17 17 17 16 16 15 16 13 14 14 14
41 46 44 44 44 48 52 54 52 50 47 46 47 47 45 43 40 42 44 46 45 42 40 38 35 34 33 31 28 26 26 26 26 21 19 19 18 17 16 15 14 14 14
41 44 45 45 44 44 46 48 49 51 48 48 49 50 50 48 47 44 45 47 46 45 45 42 34 31 35 34 32 30 30 30 27 23 24 21 18 18 17 15 15 14 13
36 41 41 45 45 42 42 43 44 47 49 49 49 52 51 51 50 48 44 44 47 43 42 44 42 36 36 35 34 34 34 34 30 32 26 22 21 18 18 15 14 15 14
36 39 41 41 38 35 42 44 38 35 39 43 40 47 53 53 51 49 47 46 47 51 50 48 46 44 41 39 34 31 32 34 31 30 30 26 24 22 19 13 14 11 12
34 35 35 37 37 39 39 37 35 32 34 33 37 44 51 54 53 51 49 49 49 48 49 51 51 50 45 43 38 37 32 32 28 24 28 30 28 25 24 20 15 13 13
24 26 30 32 34 35 35 36 35 36 33 36 37 38 45 53 56 56 53 53 54 52 49 46 47 48 49 47 40 37 34 30 30 27 23 27 26 25 24 22 20 15 14
22 23 27 28 26 25 32 33 34 33 35 40 40 42 47 52 56 59 58 58 55 55 53 51 49 45 43 42 39 36 33 33 33 27 24 22 23 20 18 16 18 17 12
21 22 23 23 23 25 27 27 28 31 32 34 37 35 39 37 47 55 58 59 57 57 50 44 40 43 40 31 35 35 36 26 25 27 26 24 22 18 17 18 18 17 17
19 20 21 21 21 21 22 24 26 29 31 33 34 35 26 40 45 40 47 52 54 47 45 42 42 36 29 28 35 35 30 33 33 28 28 23 20 18 18 15 15 14 12
15 15 16 16 20 20 23 24 27 30 31 32 35 37 35 39 41 39 47 49 42 41 49 43 40 28 24 26 27 24 25 30 33 35 28 22 21 19 16 17 17 13 14
9 9 10 11 13 15 17 21 30 30 30 37 37 35 30 34 34 36 39 39 33 40 45 41 28 27 27 27 25 34 27 31 33 32 26 24 20 19 18 19 17 15 16
9 9 6 10 9 12 14 18 20 21 31 37 36 38 40 39 36 36 37 37 34 38 49 47 38 38 35 25 39 38 38 38 35 29 25 21 21 19 21 19 15 16 16
6 5 3 8 9 9 12 15 17 18 22 23 27 39 43 32 42 40 43 41 45 49 52 51 48 44 35 29 37 43 36 31 28 25 22 22 22 21 20 18 17 16 14
8 5 3 3 1 2 2 5 10 14 19 23 25 24 28 34 37 43 40 33 49 58 51 40 34 32 29 33 35 27 32 29 26 23 23 23 21 20 19 15 16 17 17
12 12 11 10 8 7 6 5 5 6 6 6 6 4 2 5 20 27 41 7 13 22 19 19 20 22 25 30 32 27 28 26 24 24 22 21 22 19 16 16 16 17 15
12 14 12 8 7 7 5 3 2 7 2 9 1 3 2 3 15 19 21 14 21 18 17 18 23 26 30 32 27 28 26 25 24 23 23 23 20 17 17 16 16 17 14
12 13 10 8 6 4 4 4 4 2 3 4 7 10 5 7 11 10 17 23 21 18 19 23 28 30 27 26 27 25 23 23 23 23 22 20 18 16 16 17 18 17 14
15 16 11 7 4 5 4 2 3 7 4 5 7 7 12 10 11 13 12 19 21 25 22 26 23 19 20 23 22 21 22 22 22 21 19 17 16 16 18 19 19 17 15
15 13 12 13 14 10 8 8 9 8 9 9 7 6 4 5 9 9 11 14 15 15 16 17 19 21 21 20 20 19 18 18 17 17 17 17 17 19 19 19 19 17 15
12 13 12 11 11 9 8 8 9 10 11 10 7 5 4 6 10 9 8 13 14 16 18 17 17 18 20 21 20 19 20 18 13 15 16 18 18 20 20 19 18 16 15
14 14 13 15 15 10 11 10 9 8 9 10 9 8 7 7 8 10 9 9 11 11 13 12 15 19 22 20 20 19 14 9 9 14 15 15 17 18 18 18 17 15 14
Wind_Direction
225 227 229 229 229 231 233 237 237 237 235 228 234 230 225 225 229 234 231 225 235 232 231 231 232 227 222 229 229 230 232 233 243 250 244 259 259 257 246 245 253 263 274
227 227 228 229 230 230 232 235 236 235 236 236 233 234 231 227 225 231 232 229 236 234 234 235 235 233 235 226 228 230 232 233 233 244 246 249 264 259 246 255 256 269 264
218 224 227 228 229 231 233 233 234 232 231 233 231 231 231 228 228 231 233 234 238 239 236 238 238 234 238 231 236 233 235 233 241 235 250 253 245 241 257 267 257 270 269
216 215 221 228 229 229 230 231 233 233 229 228 230 230 231 232 231 231 233 234 237 239 238 237 238 237 238 240 239 241 232 231 236 236 242 243 244 244 246 252 265 277 278
217 216 220 226 229 231 234 235 236 236 234 229 229 231 231 233 230 232 233 233 236 239 239 238 236 238 241 241 239 240 235 239 236 244 244 246 244 242 246 261 267 275 281
215 222 221 226 229 231 233 237 238 239 236 234 230 230 231 230 230 233 233 234 235 238 240 241 235 239 241 243 242 241 247 243 239 237 246 247 247 244 245 251 261 272 279
223 224 225 227 232 232 231 232 236 238 237 233 230 230 231 232 234 236 234 233 235 238 242 242 237 235 242 244 243 242 243 247 242 237 236 244 250 246 241 244 259 256 269
233 226 234 232 233 232 233 236 236 236 236 235 231 229 231 233 236 238 239 239 239 238 241 243 242 240 243 243 247 245 240 243 242 235 234 240 245 240 244 251 248 258 275
231 233 231 234 226 221 233 237 232 226 229 233 232 234 233 234 236 237 238 238 239 241 242 244 244 245 243 247 248 246 242 245 248 242 240 239 243 241 240 236 251 254 267
233 230 228 231 231 234 237 232 231 226 228 226 228 234 236 236 237 239 237 237 239 240 243 244 247 246 246 246 242 243 239 244 236 237 230 234 241 239 243 244 246 254 256
220 217 222 231 234 236 239 240 237 238 225 229 228 232 236 237 237 237 238 236 236 239 235 237 242 243 240 243 241 239 239 234 236 232 237 231 235 234 238 240 244 237 249
214 213 219 226 221 221 228 233 233 226 229 228 231 239 241 241 243 240 237 237 238 233 237 239 236 241 246 240 237 235 231 226 232 228 230 218 222 225 229 229 236 232 235
205 212 215 216 213 211 224 220 219 225 223 227 229 230 236 240 244 244 243 242 238 238 234 233 228 233 239 242 228 220 217 217 235 223 211 215 222 225 220 224 228 231 246
207 208 206 208 209 210 211 216 219 221 222 223 227 228 234 264 241 234 245 245 243 238 230 228 221 224 237 230 214 206 215 193 214 217 206 209 221 210 210 211 215 226 238
195 198 202 205 214 214 215 218 222 226 225 227 225 237 245 242 237 235 243 249 243 230 227 224 220 217 211 202 197 191 218 223 208 209 202 204 203 208 208 211 214 220 237
170 186 200 205 218 217 225 231 233 231 238 238 243 242 253 255 249 252 256 255 243 227 221 210 196 183 186 185 197 224 234 217 213 208 205 202 202 206 205 210 214 222 239
166 190 195 198 223 235 241 243 247 258 255 250 250 256 256 257 258 256 263 251 232 222 217 199 181 162 177 199 240 224 215 225 215 205 202 199 203 206 203 211 220 230 238
161 175 181 226 229 236 252 254 253 259 263 268 262 254 255 260 261 262 259 248 220 213 201 190 192 197 215 229 211 210 203 201 202 198 196 198 201 199 206 211 226 230 234
101 98 85 89 79 38 340 301 291 285 285 280 275 262 260 257 260 240 230 221 204 184 184 188 208 223 212 190 192 188 183 189 191 191 194 194 197 204 209 210 221 224 223
87 62 75 76 76 77 61 33 11 329 317 35 352 5 242 263 192 176 164 304 319 290 196 204 196 183 178 174 174 178 182 175 183 189 191 195 201 201 209 214 217 225 226
85 68 90 82 77 51 40 34 68 128 162 307 288 158 177 196 209 196 206 228 253 279 226 186 169 170 174 173 169 178 180 176 184 187 194 198 199 198 209 215 217 218 216
89 88 79 76 67 72 50 47 37 281 264 284 259 220 219 228 225 232 233 232 234 234 224 198 174 173 175 172 175 175 177 179 183 188 194 197 200 202 208 209 213 212 214
67 66 67 65 66 62 37 17 352 289 290 322 323 250 229 243 255 265 236 227 229 223 183 171 158 157 161 166 169 172 178 183 184 186 192 197 206 205 205 205 209 208 211
68 70 64 60 70 61 50 53 60 53 58 79 74 88 144 214 268 260 178 158 145 157 153 155 161 161 163 161 165 171 179 183 188 193 194 205 208 207 206 204 207 208 210
65 69 61 61 61 62 68 70 63 55 59 77 91 87 102 96 111 126 146 151 159 159 160 159 160 168 165 164 166 172 184 191 189 201 199 203 201 206 200 205 204 208 208
62 60 63 74 74 78 87 75 70 81 83 86 83 80 88 118 126 134 147 156 156 165 158 160 170 166 167 167 168 179 190 201 224 207 194 199 201 205 202 203 206 205 210